Location: Auckland
(36.8670°S, 174.7670°E)
Time: 04:18:14
(UTC+13:00)

Cosmos 2322 - Pass Details

Date: 24 January 2019
Orbit: 839 x 856 km, 71.0° (Epoch: 21 February)

Event Time Altitude Azimuth Distance (km) Brightness Sun altitude
Exits shadow 23:18:17 31° 322° (NW) 1,454 4.7 -25.5°
Maximum altitude 23:21:04 69° 247° (WSW) 914 3.9 -25.9°
Drops below altitude 10° 23:26:47 10° 163° (SSE) 2,491 6.6 -26.5°
Sets 23:29:16 0° 160° (SSE) 3,431 7.4 -26.8°
